Location: Recife
(8.0585°S, 34.8848°W)
Time: 14:00:15
(UTC-03:00)

Tiros 1 despin weight - Pass Details

Date: 22 April 2026
Orbit: 555 x 591 km, 48.2° (Epoch: 14 May)

Event Time Altitude Azimuth Distance (km) Brightness Sun altitude
Rises 10:00:25 0° 228° (SW) 2,742 ? 61.9°
Reaches altitude 10° 10:02:44 10° 233° (SW) 1,839 ? 62.3°
Maximum altitude 10:06:48 50° 309° (NW) 706 ? 63.0°
Drops below altitude 10° 10:10:50 10° 25° (NNE) 1,821 ? 63.7°
Sets 10:13:07 0° 30° (NNE) 2,712 ? 64.0°
